Wind_Speed
91 91 90 90 90 89 88 86 85 84 82 80 78 78 77 78 78 78 77 76 75 73 73 70 64 60 61 62 62 60 59 59 59 60 58 53 51 52 53 55 57 57 54 51 48 46 44 43 41 38 36 35 33 32 31 31 31 31 31 30 28 26 25 22 20 20 21 21 21 21 20 17 16 15 15 15 14 12 10 10 9 9 10 10 10 10 9 9
92 92 91 91 91 90 89 88 87 85 84 82 79 78 78 77 78 78 77 77 75 73 72 71 69 64 60 61 61 59 58 59 60 60 57 52 52 54 53 52 56 58 56 52 49 47 46 44 43 41 38 37 34 33 32 32 32 32 31 29 27 27 27 27 23 21 20 21 22 22 21 19 17 16 15 15 15 13 11 10 10 11 11 10 10 10 10 10
93 93 92 92 91 91 90 89 88 87 85 83 80 79 78 78 78 78 77 77 76 74 73 71 70 66 62 62 60 58 57 59 61 59 56 54 55 56 55 52 52 55 56 54 51 49 48 46 45 43 41 38 36 35 33 32 32 31 31 28 27 29 29 29 27 24 22 22 22 22 22 20 18 17 16 16 16 15 13 11 10 11 12 11 10 10 10 10
94 94 93 92 92 91 91 90 89 88 86 85 82 79 78 78 77 78 77 76 76 74 73 72 70 67 64 63 62 60 58 60 60 57 56 57 57 58 57 56 54 52 52 54 54 51 50 48 47 45 42 39 37 35 34 33 32 31 30 28 29 31 31 31 29 27 25 24 23 23 22 21 20 18 17 16 16 16 15 13 11 11 12 12 11 10 10 10
95 94 94 93 92 92 91 89 87 88 89 85 83 81 78 78 77 77 77 76 75 74 73 72 70 68 65 63 62 61 61 62 60 57 59 59 60 60 59 58 58 55 52 51 53 53 52 51 49 47 44 41 38 36 34 33 33 31 29 29 30 31 31 32 32 30 28 26 25 24 24 23 21 19 18 17 18 17 15 15 13 11 11 12 13 12 11 10
97 94 94 94 93 92 92 90 84 83 89 87 83 82 79 77 77 77 77 76 75 73 72 72 72 69 65 62 60 61 64 63 59 58 60 61 61 62 62 61 58 56 54 52 51 51 52 52 51 48 45 42 40 37 35 34 34 32 30 30 31 32 32 33 33 32 30 28 26 25 25 24 22 20 19 18 19 17 15 16 15 13 12 12 13 13 13 12
96 96 94 94 94 93 92 92 86 80 85 88 83 82 80 77 77 77 76 76 75 73 71 71 72 70 68 66 63 65 66 62 59 58 60 62 62 63 64 64 60 57 56 55 54 52 51 52 51 49 47 44 42 39 37 36 35 34 32 31 32 32 34 34 34 33 32 29 28 27 26 25 23 21 19 19 20 18 15 16 16 14 12 11 12 14 14 13
89 95 95 93 93 94 91 90 90 83 81 85 83 79 79 78 76 76 76 76 75 74 72 70 72 71 70 72 70 68 65 63 60 57 59 62 62 64 66 65 63 59 57 56 55 53 51 50 50 49 48 45 42 40 38 38 37 36 34 34 34 34 35 35 35 34 33 31 29 28 27 26 24 22 19 20 22 17 14 16 16 15 13 12 12 13 15 14
83 89 94 94 92 93 92 88 89 86 78 79 81 76 76 78 76 76 76 76 76 75 73 70 71 72 71 73 74 71 65 63 62 57 57 61 62 63 65 65 63 60 58 57 57 56 54 52 50 49 48 46 43 42 41 41 40 38 37 37 37 37 37 36 36 35 34 33 30 29 29 28 25 22 19 20 22 18 15 17 16 15 15 13 13 13 14 15
81 84 89 93 92 91 92 87 84 86 80 75 78 75 74 76 76 76 76 76 76 75 74 72 71 73 73 73 75 74 66 61 62 58 56 58 61 62 64 64 63 61 59 58 58 58 57 54 52 50 48 47 45 45 44 43 42 40 39 40 40 40 40 38 37 36 35 34 32 30 30 29 27 23 19 21 23 21 18 18 17 16 16 16 15 15 15 15
81 82 85 89 91 91 91 87 80 81 81 75 75 75 74 74 75 75 76 76 76 75 75 72 71 72 74 74 76 74 68 64 60 57 56 57 59 60 62 63 62 62 60 58 58 58 58 57 55 53 51 49 47 46 46 45 43 41 41 42 42 41 41 40 38 37 35 34 33 31 30 30 27 22 20 23 26 25 23 20 18 17 17 18 17 16 16 16
80 81 83 85 89 90 90 88 81 77 78 74 73 73 74 73 73 74 75 76 76 76 75 72 71 71 74 77 76 72 70 71 67 59 56 56 58 59 60 63 63 63 62 60 59 58 58 58 56 55 53 50 47 46 46 46 45 43 43 43 43 43 43 41 40 38 36 35 34 32 32 29 24 20 22 27 28 28 26 23 20 19 19 18 18 17 16 17
79 80 82 83 85 88 88 88 83 78 76 72 70 71 72 71 71 73 75 76 76 76 74 72 71 71 74 77 74 72 71 73 74 69 60 55 58 60 57 58 61 63 63 61 59 59 59 58 58 56 55 52 49 48 48 47 46 45 44 45 45 44 44 42 41 40 38 37 34 34 34 28 22 23 25 28 30 30 28 24 22 21 20 19 19 17 17 17
78 79 81 81 82 84 87 86 83 80 75 71 69 67 68 69 69 71 73 75 76 75 74 73 72 71 74 75 73 73 73 73 74 73 66 54 53 61 60 55 56 59 61 62 60 60 60 59 59 58 57 55 52 51 50 49 48 46 45 46 47 46 46 43 43 42 39 38 35 37 37 27 22 26 27 28 31 32 30 27 25 22 21 20 19 18 17 17
79 78 79 81 81 82 84 84 82 80 74 70 69 66 63 65 67 69 71 74 75 75 75 73 73 73 74 73 73 74 75 76 75 74 69 57 48 52 59 56 54 57 58 61 61 60 60 60 60 59 58 56 54 54 54 53 51 49 46 46 46 47 48 45 44 44 41 40 38 39 39 27 22 28 28 29 31 32 31 30 27 24 22 21 19 18 17 16
79 79 79 80 80 80 82 83 83 80 73 66 68 68 59 59 65 67 68 72 76 76 74 72 71 73 74 72 72 75 77 77 77 76 71 64 53 46 50 53 53 56 56 57 60 61 60 61 60 60 59 57 56 55 55 55 55 54 52 49 48 47 49 47 46 45 42 42 40 40 40 29 24 29 30 30 31 31 31 31 29 25 23 21 18 17 16 15
80 79 79 79 80 79 80 83 84 82 72 63 67 69 59 56 64 66 65 69 76 77 73 72 69 70 73 73 72 74 77 77 77 78 73 69 64 51 46 49 53 57 57 55 56 60 61 62 62 61 60 59 58 57 57 58 56 56 55 55 54 50 49 47 45 45 44 43 42 41 41 33 27 31 32 31 32 32 32 32 31 27 24 21 19 16 16 16
81 80 79 79 80 79 79 81 84 83 74 64 65 68 61 58 64 65 66 71 75 77 75 75 72 71 72 72 72 72 74 76 75 79 77 71 70 62 50 48 51 55 58 58 55 56 60 62 63 62 62 61 60 59 59 59 57 56 57 57 57 54 50 47 43 43 44 45 44 43 44 37 30 32 34 34 35 33 32 32 31 28 25 23 22 19 17 17
83 82 80 79 79 79 79 80 83 83 75 67 65 67 63 60 62 65 70 73 76 79 80 79 77 75 73 68 68 68 70 74 75 79 81 73 70 71 60 51 49 49 54 60 58 55 55 58 62 63 63 62 60 59 59 59 58 57 57 56 56 55 52 49 45 45 45 46 47 46 47 42 34 34 35 36 38 36 33 32 31 29 27 26 25 22 20 18
82 82 80 79 79 78 78 79 81 81 75 70 71 71 66 64 65 69 73 73 76 80 81 80 76 74 72 66 62 62 67 75 77 78 82 78 71 73 70 57 49 47 51 59 62 60 57 57 58 58 59 60 59 58 59 60 60 58 57 56 56 55 53 51 48 48 47 48 49 48 49 47 39 37 37 38 40 38 34 31 30 30 30 29 28 25 23 20
81 82 81 79 79 77 78 79 80 80 76 72 74 74 69 67 67 69 71 72 75 79 79 78 77 75 74 70 65 61 64 73 78 78 81 82 77 75 74 63 51 48 51 56 60 63 64 61 58 55 56 59 60 60 60 61 62 61 58 57 57 56 54 52 50 50 50 51 51 51 52 51 43 39 40 41 42 40 36 32 29 30 31 32 29 27 26 24
80 82 81 79 79 77 77 81 81 81 78 72 72 73 68 63 61 61 65 70 73 76 79 78 77 77 77 74 71 65 62 65 74 80 82 82 82 80 77 68 55 50 52 56 57 59 63 63 59 55 55 57 59 61 62 62 63 63 61 60 58 58 56 55 54 52 51 53 54 53 54 54 48 42 42 43 43 41 37 34 32 32 32 31 29 29 29 28
79 82 82 79 78 76 77 82 83 82 80 75 71 70 65 59 58 58 61 67 72 76 79 81 78 77 77 76 75 71 68 65 66 74 81 82 82 83 81 72 60 54 55 59 58 57 58 58 57 57 56 55 56 58 61 62 64 64 63 61 60 59 58 57 56 55 54 54 55 55 56 55 51 45 42 42 43 42 39 36 35 34 33 30 29 30 30 29
77 81 81 79 77 76 77 80 84 83 80 76 70 66 62 60 58 58 60 64 70 75 79 82 80 78 76 76 77 76 74 71 66 65 72 79 80 82 83 78 69 63 58 56 59 60 58 55 56 57 57 57 55 56 58 60 62 63 63 62 60 58 58 57 57 57 56 56 56 57 58 57 52 47 43 41 44 44 41 39 37 35 33 31 30 30 29 29
77 81 80 79 77 76 77 78 79 80 77 74 71 66 63 62 58 56 59 63 68 74 78 81 81 80 77 74 76 76 74 75 72 65 64 72 79 80 82 82 78 73 62 55 57 61 62 60 57 57 57 57 57 57 58 57 58 59 60 59 59 58 58 59 60 59 59 58 58 58 60 60 54 49 46 43 45 45 43 42 39 36 35 33 31 30 29 30
77 82 80 79 76 75 77 76 72 72 74 75 73 68 65 62 58 55 58 63 69 76 79 79 80 80 78 75 75 74 73 74 75 73 67 66 73 78 81 83 82 78 69 62 60 59 61 62 60 58 56 56 57 58 58 56 57 58 56 54 55 56 57 60 61 62 62 61 60 59 61 63 58 52 48 45 45 46 45 43 40 39 38 36 33 31 30 31
77 82 80 79 75 77 80 76 71 69 71 75 73 69 66 62 59 58 60 65 70 75 79 80 79 78 77 77 74 73 74 73 72 74 72 67 68 74 80 82 83 82 77 72 66 56 54 60 63 61 59 57 58 58 56 55 56 56 54 52 53 54 56 60 61 62 62 62 62 61 61 65 63 55 49 47 47 47 47 45 43 41 40 38 36 34 33 32
78 81 81 78 75 80 82 76 72 65 63 69 69 67 66 63 60 61 65 69 71 74 77 79 79 75 75 76 75 72 73 72 71 72 71 69 69 70 75 80 81 83 82 80 71 56 52 57 61 61 62 60 58 59 59 58 59 58 56 54 53 54 57 59 61 61 61 62 64 63 62 67 68 60 52 49 48 48 48 46 45 44 43 41 38 36 35 34
78 81 82 78 76 83 83 77 70 61 59 64 66 67 66 62 61 64 70 72 70 72 74 77 78 76 75 75 73 72 71 72 74 74 71 72 72 70 70 74 78 82 84 85 79 69 62 60 59 58 59 58 56 57 60 60 60 61 60 57 54 56 58 59 60 60 61 64 64 61 61 67 70 65 58 54 51 48 48 47 46 45 45 43 39 37 35 35
79 83 82 77 78 86 84 75 66 59 61 64 64 66 67 65 63 65 72 74 70 70 73 75 77 77 76 75 73 70 70 72 72 73 73 72 73 73 70 69 74 79 82 85 86 81 73 68 63 57 53 54 51 51 58 61 57 54 56 59 58 58 58 58 61 60 61 65 63 59 60 65 71 70 63 59 54 50 49 48 47 46 45 45 43 40 38 37
77 83 82 77 81 85 80 73 65 61 64 66 66 67 68 68 67 66 71 72 69 69 71 73 76 77 75 75 75 72 70 70 69 70 72 70 69 73 74 73 73 76 80 83 86 85 81 76 67 57 52 51 47 43 49 56 56 50 49 53 56 58 59 59 60 59 62 66 62 59 61 65 71 72 65 60 57 52 51 49 47 46 46 46 46 44 43 42
74 83 81 77 80 79 75 71 65 62 65 69 71 70 68 69 68 68 69 69 69 69 69 70 73 76 75 74 74 73 71 72 70 69 70 69 69 71 74 76 75 75 78 80 81 83 84 81 72 63 57 51 46 41 39 46 54 52 48 49 52 55 57 59 61 60 63 65 61 59 61 64 69 71 66 62 59 54 51 49 47 46 47 47 48 47 45 45
77 81 78 77 77 77 75 69 63 63 68 71 72 70 69 69 70 69 66 65 67 65 63 66 68 71 75 75 74 73 72 73 72 70 69 69 70 69 70 73 74 75 76 76 77 80 82 83 79 74 67 56 48 42 37 39 48 52 51 51 51 52 54 59 61 62 63 62 59 59 62 63 65 68 66 63 61 58 54 52 49 46 45 45 47 48 46 45
79 79 76 76 78 80 76 65 56 60 69 72 72 71 71 70 70 68 62 60 61 57 57 62 65 68 73 74 74 74 73 73 72 71 70 70 71 71 70 71 73 75 74 73 75 79 81 80 79 78 74 66 57 49 42 39 41 43 45 45 46 47 48 51 53 55 57 57 58 60 63 64 64 66 64 62 63 63 60 57 53 48 42 41 43 46 46 46
79 75 72 76 83 83 73 59 50 55 68 75 73 72 73 70 68 65 60 58 56 52 54 60 64 68 71 73 73 74 74 74 72 71 71 71 70 71 70 70 71 73 73 73 74 76 79 79 77 76 76 75 70 64 58 53 48 44 43 45 44 41 41 44 46 48 50 52 57 61 63 63 63 64 64 64 66 67 63 59 56 51 46 42 42 43 44 45
77 69 65 72 84 81 67 56 51 55 68 76 74 72 72 69 65 60 56 55 52 47 50 59 65 69 71 73 74 75 74 73 71 71 71 70 69 68 68 68 68 69 70 71 72 73 75 77 76 74 76 78 76 73 71 70 64 57 54 51 44 41 43 43 44 45 45 47 53 57 59 59 59 61 62 63 66 67 64 59 55 52 51 48 46 43 42 42
73 65 62 70 81 75 62 56 55 59 69 74 74 71 69 67 63 59 55 52 48 46 50 56 61 66 70 73 74 75 75 73 72 71 69 69 69 68 67 66 66 66 65 66 68 70 71 72 73 72 72 74 74 71 69 72 72 69 67 59 50 51 54 50 48 49 48 49 51 54 56 55 54 57 57 57 61 63 63 61 56 53 53 52 49 45 42 41
63 58 60 70 79 70 59 56 57 61 66 69 71 70 68 67 64 58 53 48 46 46 50 53 56 63 68 70 72 73 74 74 73 72 69 69 69 67 66 65 64 63 62 63 65 66 67 68 71 72 70 71 71 68 66 66 67 69 71 68 64 64 62 58 57 54 51 52 50 50 52 51 50 53 52 51 52 55 57 60 58 54 52 52 51 47 45 43
55 55 60 69 75 65 55 55 58 64 66 66 68 69 67 64 61 57 51 47 46 47 52 55 55 59 64 66 68 70 71 73 73 73 72 70 68 66 65 64 63 62 62 63 63 63 64 65 68 70 69 68 67 66 66 63 59 62 67 70 71 70 68 67 65 61 58 59 56 51 50 50 48 49 51 49 49 50 53 54 54 52 49 50 51 49 47 45
53 61 66 67 68 59 52 54 60 66 67 63 63 65 65 62 59 56 51 49 48 49 51 52 50 55 60 63 67 67 67 70 71 71 72 71 68 66 65 65 64 63 63 63 64 64 64 64 65 67 68 67 66 65 67 63 55 54 58 63 64 64 67 68 66 65 63 63 64 61 58 51 40 38 45 47 47 46 46 48 49 46 45 48 51 50 46 44
54 67 69 65 63 57 53 58 64 66 64 60 60 62 63 60 58 56 51 48 48 47 46 46 46 52 58 61 64 65 65 66 68 69 70 69 68 66 65 63 63 64 64 65 66 66 66 66 66 67 68 68 67 67 67 63 56 51 51 57 57 54 55 57 59 62 60 61 64 67 68 56 36 29 37 42 45 45 41 44 47 44 41 42 48 50 47 41
55 67 67 63 59 55 55 58 62 62 60 59 59 60 61 59 57 56 51 47 47 47 46 46 47 53 58 59 60 62 64 64 64 66 66 66 65 64 62 61 61 62 63 64 63 63 64 65 66 68 69 68 67 66 64 61 58 55 53 54 55 54 53 54 58 62 62 64 62 62 70 61 40 33 36 35 37 41 38 39 41 41 37 34 39 46 45 37
54 63 63 58 53 52 54 56 59 60 58 57 56 58 59 58 56 55 52 47 46 46 46 46 47 51 56 58 58 59 61 61 60 61 61 61 61 61 61 60 59 60 61 61 61 60 62 64 64 66 67 68 67 66 63 57 53 54 54 52 52 53 52 51 53 55 57 62 60 58 68 63 45 39 41 38 35 37 39 40 38 36 32 29 33 39 40 36
52 61 59 52 50 52 53 53 55 55 52 51 51 53 56 55 54 53 51 47 44 43 44 46 47 49 52 55 57 57 57 58 59 57 56 56 56 57 58 58 58 58 58 58 58 59 60 62 64 65 67 69 70 69 68 63 59 60 59 56 53 51 48 45 45 47 50 54 53 52 61 63 54 48 48 49 47 43 43 46 43 38 35 33 36 38 39 38
49 60 57 50 52 58 56 51 48 46 45 45 45 47 49 51 51 49 47 47 44 42 43 44 46 48 50 53 56 57 56 56 57 57 55 53 51 52 53 53 54 54 54 54 55 55 57 58 59 62 65 68 70 71 70 68 67 68 68 66 63 59 57 54 52 54 56 55 54 54 54 54 57 58 54 54 58 54 49 49 47 44 43 43 42 42 41 40
49 58 59 57 58 60 58 53 49 45 42 41 42 42 42 44 47 46 44 45 45 43 43 43 44 46 50 52 54 55 54 54 55 55 54 53 52 52 51 51 52 52 52 53 54 55 56 58 58 59 62 64 66 66 65 66 67 67 66 65 64 62 60 59 58 59 58 58 60 62 58 53 56 61 60 59 62 61 58 57 56 55 55 54 51 48 45 42
50 57 60 62 61 59 57 54 50 44 39 38 39 39 38 39 43 43 41 42 43 43 43 43 42 43 44 45 47 48 49 51 52 52 51 51 52 53 53 53 53 53 53 55 56 56 57 59 59 60 62 63 63 63 63 66 67 67 67 67 65 64 62 62 64 61 56 59 61 58 56 55 54 59 65 67 63 60 60 60 60 60 61 60 59 56 51 47
50 56 59 59 57 54 51 48 44 41 38 37 37 38 38 39 41 42 41 41 42 43 44 43 41 40 39 39 41 42 45 47 47 46 47 47 48 50 52 53 53 53 54 56 57 57 59 61 60 61 63 63 63 64 64 66 68 68 69 69 68 68 67 68 69 65 61 64 65 59 56 57 53 54 62 67 64 60 61 63 61 60 60 59 59 58 55 53
48 54 58 57 54 48 43 40 40 39 39 38 38 37 37 38 40 42 42 42 42 43 44 42 39 39 39 39 40 41 42 41 37 36 38 40 42 44 46 49 51 52 53 54 53 53 56 58 58 60 62 63 63 65 65 66 68 69 70 71 70 71 71 70 70 70 69 70 70 66 66 66 59 54 56 58 59 59 59 61 61 59 59 58 56 56 55 56
47 54 57 56 52 47 43 42 42 41 40 39 38 37 38 38 39 40 40 41 41 40 40 38 38 39 40 40 40 39 37 35 33 33 35 37 39 40 41 44 47 48 50 51 51 51 52 53 53 56 59 61 61 62 63 65 66 68 69 70 71 72 73 73 73 73 74 75 74 72 72 72 66 58 54 52 55 56 55 56 57 58 60 59 57 58 59 59
45 50 51 51 51 48 46 45 44 43 43 40 38 38 39 40 39 39 38 38 38 37 36 36 37 39 40 40 38 35 34 35 37 37 38 40 40 41 43 45 46 48 49 49 50 50 51 50 49 51 56 57 54 55 58 60 62 65 67 66 67 70 72 74 74 74 75 76 77 76 77 77 69 62 57 53 53 55 52 52 54 55 60 62 60 62 66 64
43 45 46 49 51 50 49 48 46 44 42 38 37 38 38 40 41 41 39 38 37 37 37 38 38 38 39 37 34 34 37 40 40 40 41 43 44 46 47 47 47 48 48 48 49 50 50 50 49 51 55 53 50 50 53 56 61 65 64 62 64 67 70 72 73 74 75 75 77 78 79 77 71 67 65 59 55 53 51 53 55 53 56 62 62 62 65 66
Wind_Direction
225 224 224 224 225 225 226 226 228 230 231 230 228 228 228 228 228 228 228 229 229 229 230 229 226 228 232 232 231 229 226 225 226 228 230 229 227 226 226 227 229 232 232 232 232 232 233 235 235 232 229 228 228 230 232 234 236 237 237 238 241 244 246 239 228 223 222 226 229 232 235 233 234 237 239 242 250 258 265 270 267 265 272 285 296 301 303 304
224 224 224 223 224 225 226 225 226 229 230 230 229 228 228 228 228 228 228 228 228 228 228 228 226 225 228 231 232 230 227 226 226 227 228 226 227 227 226 226 227 230 232 232 232 232 233 234 235 234 231 228 228 229 231 233 235 237 238 238 241 243 244 240 231 224 223 227 230 232 234 231 231 235 238 241 245 249 253 261 268 265 262 270 286 295 298 301
224 223 223 223 223 223 225 225 225 227 229 230 229 228 227 227 228 228 228 227 228 228 227 227 226 224 225 229 230 230 229 228 228 227 226 225 227 228 227 226 226 228 231 233 233 232 233 233 235 235 233 231 229 230 230 232 234 236 238 239 242 243 243 242 235 228 226 226 229 232 234 232 229 230 234 239 243 245 244 247 257 264 262 261 272 285 290 294
224 223 222 222 222 223 224 225 225 226 228 229 229 228 227 227 227 228 228 227 227 227 227 226 225 223 223 227 228 229 229 230 230 227 224 225 226 229 229 228 227 227 230 232 234 233 233 233 234 235 235 234 232 231 231 232 234 236 238 239 241 242 243 243 239 233 229 227 228 233 235 233 229 227 228 235 240 242 242 240 241 251 259 259 262 271 280 285
224 223 222 222 222 222 223 224 225 225 226 228 229 228 227 226 226 227 227 227 227 226 227 226 225 223 221 225 227 227 229 230 230 225 223 224 225 228 229 229 228 227 228 230 233 234 234 233 233 234 235 235 234 233 233 233 235 237 238 239 240 242 243 244 243 239 233 229 229 233 235 234 231 227 226 231 238 241 242 242 238 237 248 255 257 262 271 276
224 223 222 222 221 222 222 222 223 225 225 226 228 228 227 225 225 226 227 227 226 225 226 225 224 222 219 222 224 225 227 229 229 225 223 224 224 226 228 228 228 226 227 229 231 234 235 233 233 234 234 234 234 233 233 233 234 235 236 237 239 242 242 243 244 242 238 233 231 232 233 236 234 230 229 231 238 241 243 247 244 237 238 246 253 257 263 269
223 223 222 221 221 221 222 221 221 224 225 225 227 228 227 226 224 225 226 226 226 225 224 224 224 221 217 218 220 220 223 226 227 224 222 223 223 225 227 228 228 226 226 228 231 233 235 233 232 233 234 234 234 234 233 233 233 233 233 235 237 240 242 242 243 243 241 237 233 230 231 235 235 232 232 233 238 239 240 247 247 241 235 236 245 252 258 265
223 222 222 221 221 221 221 221 221 222 224 225 225 227 228 226 224 224 225 225 225 224 223 223 223 221 217 217 218 219 220 222 225 223 221 223 224 225 227 228 228 226 225 227 229 230 232 232 232 233 234 234 234 234 235 234 234 233 232 233 235 237 240 241 242 242 242 239 234 230 228 231 233 232 231 233 238 236 233 240 241 240 236 230 235 244 251 258
223 221 221 221 220 220 220 220 221 220 222 225 225 225 227 226 224 223 224 224 225 224 222 222 222 221 218 217 218 220 219 221 225 225 223 224 224 225 227 228 228 228 225 225 227 229 231 233 234 234 234 234 233 234 235 235 234 233 231 232 233 234 237 239 240 241 241 240 237 232 229 228 229 229 229 234 240 235 225 230 236 239 239 231 227 234 244 251
222 221 220 220 220 220 219 219 220 219 221 224 224 223 226 227 224 222 222 223 224 224 222 221 222 221 219 217 218 218 217 219 223 226 225 224 225 225 226 228 228 228 227 225 227 229 232 235 235 235 235 234 234 234 234 234 234 233 232 232 233 234 236 238 239 240 241 241 239 235 232 229 227 227 231 238 242 236 225 229 237 240 241 236 228 226 234 243
221 220 220 219 219 219 218 218 217 218 219 222 223 223 225 227 225 221 221 222 222 223 222 220 221 222 220 218 218 218 216 216 219 224 225 223 224 226 226 227 227 228 228 226 226 228 231 233 234 234 234 235 235 235 234 234 234 233 233 233 234 235 237 239 240 241 242 243 242 239 236 232 228 225 234 240 240 237 231 233 239 241 241 238 234 229 229 234
220 219 219 218 218 217 217 217 215 216 217 219 221 221 223 226 226 223 220 221 221 221 222 220 220 222 220 218 218 217 215 216 217 220 225 224 224 227 227 227 226 226 227 227 226 227 229 231 232 232 232 232 232 233 233 234 234 233 233 234 235 236 238 239 240 242 243 245 245 244 240 235 231 226 232 237 238 239 238 237 238 240 240 237 236 233 231 232
219 218 217 217 217 216 216 216 214 215 216 218 220 219 221 224 226 225 221 220 220 220 221 219 219 221 222 220 218 216 213 216 219 219 223 226 226 227 228 228 227 225 226 227 227 226 228 229 231 231 230 229 229 231 232 233 234 234 232 233 235 236 237 239 240 242 243 245 246 247 244 236 234 231 231 236 238 240 242 240 238 238 239 236 234 234 235 236
218 217 216 215 215 215 214 214 213 213 216 218 218 217 221 224 224 225 222 219 220 219 219 218 218 220 222 222 219 216 213 214 218 218 219 223 225 226 228 228 227 226 225 227 227 227 227 228 230 230 230 228 228 230 231 232 234 234 233 233 234 235 237 237 240 242 243 245 245 247 246 237 235 236 233 237 239 240 242 242 240 236 236 235 234 233 235 238
216 215 215 214 214 213 212 213 211 211 213 216 216 214 219 224 222 223 223 220 219 218 217 217 217 218 221 222 219 216 213 212 215 216 215 215 217 221 224 226 226 225 225 227 228 229 228 228 229 230 230 229 229 230 231 232 234 235 235 235 235 237 238 237 239 241 241 243 244 246 247 239 235 241 239 238 240 241 242 243 241 236 233 234 234 233 233 238
214 214 214 212 212 210 210 210 208 208 209 212 214 211 216 224 223 220 220 219 218 217 215 214 217 219 221 222 219 216 214 212 212 214 213 212 213 214 216 220 223 224 225 226 227 229 229 230 230 229 230 230 230 230 232 233 233 236 237 238 239 239 239 237 238 240 240 242 243 245 248 241 236 244 244 242 242 243 243 243 242 236 232 233 233 232 231 235
213 212 212 211 210 208 208 208 207 206 206 209 212 209 211 221 223 220 218 218 217 215 213 211 213 219 222 222 220 217 216 213 212 213 213 211 211 212 210 213 219 221 222 224 225 227 229 229 230 230 229 229 229 230 231 233 233 235 237 238 239 239 239 237 237 240 242 243 244 246 248 243 236 244 248 248 246 244 244 244 243 238 233 231 229 227 225 228
211 211 210 209 208 207 206 206 206 205 205 208 209 207 209 217 222 219 215 215 215 212 210 209 208 213 219 221 220 218 216 215 213 213 214 212 210 211 212 213 217 220 221 222 223 225 227 227 228 228 228 228 229 229 231 234 234 235 236 238 239 239 240 241 241 243 245 247 247 247 249 245 237 241 247 250 251 247 245 247 246 243 237 231 228 224 221 221
209 209 208 207 206 205 204 204 205 205 206 209 209 208 210 214 218 217 214 214 213 210 209 207 206 210 214 217 219 219 217 216 215 213 214 214 211 211 213 213 214 217 221 221 221 222 225 226 227 227 229 229 229 230 232 234 235 235 236 238 240 241 242 243 243 243 245 247 248 248 249 247 240 240 245 248 252 252 249 249 249 247 243 236 230 226 223 220
208 207 207 206 204 203 202 201 203 205 207 210 209 207 209 209 211 212 211 211 212 211 210 209 207 209 211 213 215 216 216 217 216 214 215 215 213 211 213 213 211 215 220 221 220 221 224 226 227 229 230 231 231 231 232 234 235 236 236 237 240 242 242 243 243 243 244 246 248 250 251 249 244 242 246 248 252 253 252 251 250 249 248 244 236 229 226 222
206 205 205 204 202 201 200 200 201 202 204 209 208 208 210 210 212 215 212 210 209 209 210 209 208 209 209 210 212 212 214 216 215 214 215 215 214 212 212 212 210 211 216 219 219 220 223 225 226 227 228 229 230 230 231 233 235 236 236 236 238 240 242 243 243 243 244 245 246 248 250 250 245 242 245 249 252 254 254 254 252 250 249 248 243 236 231 227
204 203 202 202 200 199 199 198 199 200 202 207 210 211 213 213 216 220 220 217 213 210 209 209 208 209 209 209 211 211 212 215 215 215 215 215 215 214 212 210 209 208 210 214 217 219 222 225 225 225 226 226 227 229 230 232 233 234 234 235 236 238 240 241 242 243 243 244 245 245 247 248 246 242 243 249 252 254 255 254 252 250 248 248 247 243 239 235
202 201 200 200 198 197 197 198 199 201 203 207 211 213 213 213 214 214 217 219 218 214 210 209 209 209 210 210 212 213 212 213 215 216 217 216 215 214 213 211 208 207 206 210 213 216 221 225 226 226 228 228 228 228 229 231 233 234 234 234 235 237 239 241 243 243 243 243 244 245 245 246 246 243 243 248 252 254 255 254 252 252 252 251 248 246 245 244
200 199 198 198 196 196 197 197 200 203 206 209 213 214 214 214 214 212 212 213 214 214 212 210 209 209 210 210 211 214 214 214 215 216 217 218 217 216 215 213 211 210 207 207 211 214 218 223 224 225 227 228 228 229 230 232 234 235 235 235 235 236 239 242 244 244 245 244 244 246 246 244 245 244 242 244 250 252 254 255 254 254 255 255 252 249 247 246
197 196 195 195 194 195 196 196 201 205 208 212 214 215 214 214 214 212 212 212 210 211 212 211 209 209 210 210 210 212 214 214 215 216 217 217 218 217 217 216 215 214 211 208 209 211 213 218 221 223 225 227 229 230 231 233 235 237 238 238 238 237 238 241 244 246 246 246 245 246 248 245 243 244 241 240 246 250 252 254 255 256 255 254 254 254 251 247
194 193 193 193 192 192 192 194 198 201 206 212 214 213 212 213 214 212 211 212 210 208 210 211 210 210 210 211 211 211 212 213 213 216 217 216 217 217 218 219 218 217 216 215 211 207 208 214 219 222 224 226 228 229 230 231 234 237 239 240 239 239 239 240 243 245 246 246 245 246 248 246 242 241 242 241 243 247 250 251 253 255 255 254 252 250 251 250
191 190 191 191 191 190 189 192 194 196 202 207 209 209 210 211 213 212 208 209 211 208 207 209 210 210 209 210 212 211 212 213 213 216 217 217 218 217 217 219 219 219 220 221 216 206 204 212 217 221 224 226 227 229 229 229 231 235 236 237 238 238 238 239 241 243 245 245 245 246 248 247 243 239 240 241 242 244 248 250 250 251 252 252 252 249 248 250
187 188 189 188 189 189 188 191 194 196 200 204 206 208 210 210 210 210 206 207 210 207 206 207 208 209 209 210 211 212 213 213 213 215 216 217 219 217 217 217 219 221 223 225 221 210 207 211 213 217 221 223 226 229 231 231 231 233 233 233 235 238 238 239 241 243 244 244 244 243 246 248 245 239 238 240 241 243 246 248 249 249 250 251 252 252 249 250
185 186 188 187 187 189 190 193 197 198 199 202 205 207 209 209 208 209 207 207 209 207 206 207 207 208 208 209 210 211 212 211 213 215 216 218 219 218 217 216 218 221 224 227 225 218 216 215 213 214 216 218 221 225 230 233 234 235 234 233 234 238 239 240 242 243 244 243 242 243 245 249 247 242 240 239 240 242 245 247 248 249 251 251 251 251 250 250
183 186 187 186 187 190 192 194 198 201 201 203 206 207 209 208 204 205 206 206 207 206 205 205 206 207 207 208 210 211 211 211 212 213 215 219 220 220 219 217 218 220 223 227 228 224 223 221 218 214 213 215 216 218 224 230 232 234 236 237 238 239 240 241 243 244 246 244 244 245 246 249 248 243 241 241 240 241 243 246 248 250 252 252 251 249 250 251
183 185 187 187 189 191 191 193 197 200 203 206 208 207 207 205 203 204 207 207 206 205 203 204 204 206 207 209 210 210 210 210 211 212 214 216 220 221 221 219 218 219 222 226 228 228 227 227 223 214 211 214 214 215 219 224 225 226 230 236 239 240 241 242 242 243 245 244 244 245 244 246 247 242 240 243 243 242 242 244 247 249 251 253 253 251 251 252
182 185 187 188 190 190 191 193 195 198 202 206 209 208 202 201 203 204 206 207 206 205 204 204 204 204 207 209 211 212 212 212 212 212 213 215 218 221 221 221 220 220 221 223 226 228 229 231 228 220 214 213 214 214 214 218 221 221 224 230 235 239 241 242 243 243 244 244 242 242 243 245 245 243 242 243 244 244 243 244 245 247 249 251 253 254 253 254
180 183 186 187 188 188 191 195 196 198 199 202 207 204 197 199 202 203 205 206 207 207 206 207 206 205 207 209 211 212 213 215 215 214 214 215 217 219 221 222 222 222 223 223 225 228 231 232 231 228 222 215 214 216 215 217 220 222 224 227 230 234 238 241 242 244 245 245 242 242 246 247 245 244 244 245 246 246 244 244 244 244 247 250 252 253 254 255
181 183 184 186 186 187 192 196 197 198 198 201 204 198 195 200 202 201 204 206 208 209 209 210 209 208 209 210 211 213 214 215 215 216 216 216 216 218 219 221 221 222 223 224 226 228 232 234 233 233 231 225 221 221 218 216 219 221 222 225 228 231 237 241 244 246 247 246 244 243 246 248 246 244 245 245 247 248 246 244 244 243 244 249 254 255 254 254
180 182 185 187 186 187 194 196 199 203 200 200 201 197 196 199 201 203 207 210 212 212 212 211 210 210 210 210 212 214 215 216 215 216 218 218 218 219 220 221 222 223 222 223 226 227 230 234 234 235 237 237 235 232 227 223 222 222 222 224 225 228 236 242 244 246 247 246 244 243 246 248 245 242 242 243 244 247 248 247 247 247 245 246 252 257 257 255
178 182 187 189 187 189 195 199 205 209 203 200 199 196 198 202 205 210 215 218 218 218 216 211 210 211 211 210 212 213 215 217 217 217 218 219 219 219 221 222 223 224 224 224 226 227 229 232 233 236 238 240 242 242 238 235 232 229 229 229 225 228 237 242 242 242 244 245 243 244 247 248 246 241 240 241 241 243 247 248 248 249 249 247 248 251 255 254
179 183 185 187 188 190 196 202 208 209 204 203 201 198 201 205 210 214 216 217 216 216 217 215 213 213 212 212 213 213 215 216 217 218 219 220 220 219 220 222 223 224 225 226 227 228 230 231 233 237 239 239 244 247 246 245 243 239 237 233 231 235 240 242 243 242 243 245 244 243 245 247 246 241 238 240 241 241 244 247 248 249 250 250 248 246 248 249
181 185 184 185 188 191 197 204 209 208 205 204 204 203 203 206 209 212 213 214 212 211 215 218 219 217 215 214 215 215 216 216 218 219 219 221 222 220 220 222 223 224 225 227 228 227 228 230 231 236 239 240 243 248 249 248 248 247 244 240 240 243 244 245 247 246 246 248 247 243 243 243 243 241 239 242 244 242 244 245 248 250 251 253 252 249 246 244
184 184 182 184 188 193 199 205 209 208 206 205 205 205 205 207 209 209 210 212 210 211 213 216 218 219 218 217 217 217 217 217 219 220 220 222 222 222 222 223 223 225 227 229 230 228 228 230 231 233 237 241 243 245 248 249 249 249 248 246 246 248 249 250 252 252 251 254 252 247 242 240 240 241 242 244 246 245 245 244 245 249 253 256 256 255 251 247
184 181 181 185 190 194 201 206 207 207 207 206 206 206 207 209 208 207 208 208 207 209 213 215 218 220 220 219 217 217 218 219 219 220 222 223 223 222 223 223 223 225 228 230 231 231 230 230 231 232 236 240 242 243 246 250 251 250 251 252 252 252 253 255 256 257 257 257 257 255 249 239 233 238 242 243 244 244 244 244 243 246 252 256 259 260 259 253
181 180 184 188 190 196 200 202 204 207 207 206 205 206 208 209 209 208 206 205 206 210 212 216 219 220 221 220 219 218 218 219 220 221 222 224 224 224 224 225 225 226 229 231 232 232 232 232 232 233 235 238 242 243 246 250 253 252 251 252 254 256 256 257 258 258 260 261 261 261 257 243 223 225 235 237 241 242 242 244 242 243 248 254 259 262 263 260
181 183 189 191 193 198 201 202 204 206 207 206 205 207 208 209 210 209 207 204 205 208 211 214 218 220 220 220 221 222 221 221 220 221 223 224 225 226 227 227 228 229 230 233 234 235 236 235 234 235 236 237 240 243 245 248 252 255 254 252 253 254 255 256 258 259 260 261 260 261 261 247 222 222 233 229 235 242 244 245 243 241 244 252 260 262 262 260
183 185 190 194 197 200 202 204 204 204 205 205 205 207 209 211 210 208 207 206 205 207 210 213 215 218 219 219 220 222 223 224 223 223 224 225 226 227 227 227 228 230 232 233 235 236 238 238 237 238 238 238 239 242 244 245 246 249 252 252 253 254 255 257 259 260 260 259 258 259 261 253 231 227 236 231 236 248 251 252 252 247 245 252 260 260 259 257
183 184 188 194 198 201 205 207 206 206 206 206 206 207 210 213 211 206 206 207 206 208 210 212 214 217 218 219 219 220 221 224 225 225 225 225 226 227 228 229 229 231 233 235 236 238 240 241 240 239 239 239 239 239 241 242 242 244 246 249 251 253 254 253 254 256 257 260 260 258 262 258 242 235 238 237 241 249 251 252 253 253 253 256 259 257 255 255
184 185 190 195 198 202 205 206 208 211 210 209 211 212 214 215 210 206 206 207 207 209 210 211 213 215 217 218 219 220 220 221 223 224 225 225 225 226 228 229 230 231 233 235 237 238 240 241 240 241 241 240 240 240 240 243 246 248 249 249 251 252 253 254 255 255 255 258 260 259 263 263 250 240 236 237 244 248 249 249 250 253 258 259 260 257 253 251
186 189 193 195 196 199 202 203 206 208 209 209 209 210 213 212 208 205 206 207 208 209 210 211 212 214 217 218 219 220 222 223 224 224 225 225 225 226 227 229 229 230 231 233 235 236 238 240 239 241 242 241 241 241 242 243 247 249 250 250 251 252 254 255 256 256 256 258 258 258 261 262 256 247 238 239 248 252 251 252 253 256 260 261 261 259 255 252
190 193 195 194 193 195 199 201 201 202 204 207 207 206 207 205 204 204 204 205 206 208 210 211 212 214 215 216 218 220 222 224 225 226 226 226 227 226 227 228 229 230 230 232 233 234 237 239 239 240 242 241 241 240 241 242 244 246 247 247 249 251 252 252 253 255 257 258 256 256 258 258 256 252 245 244 251 255 254 255 257 258 259 261 261 262 260 256
195 195 197 198 197 197 197 198 199 199 201 204 206 207 206 205 204 204 203 203 204 206 208 210 210 211 213 214 216 218 219 220 220 221 222 223 225 226 225 226 227 228 229 231 232 234 236 237 238 240 242 241 241 240 241 242 244 244 244 245 245 247 249 250 251 253 253 254 254 254 256 255 253 253 251 248 250 254 254 256 258 259 259 260 260 261 261 256
198 197 197 198 200 199 198 198 201 203 202 201 202 204 206 207 206 204 202 203 205 205 207 208 208 209 211 212 214 216 217 218 219 220 220 220 221 223 223 224 225 226 227 228 230 232 235 237 238 240 242 242 242 242 243 244 245 245 245 245 245 246 248 250 251 251 252 254 255 254 255 255 254 256 257 253 251 253 254 254 255 257 258 258 257 258 259 256
200 198 196 196 196 197 199 200 202 203 203 201 200 200 201 203 205 205 204 204 206 207 208 208 208 209 211 214 216 218 219 220 221 222 223 223 222 223 223 223 223 225 227 227 228 229 233 236 236 238 241 241 241 243 244 245 247 247 247 247 246 247 248 249 250 252 254 257 259 260 259 259 259 258 258 256 255 256 256 255 253 253 255 256 255 255 257 256
199 196 196 197 196 196 198 199 199 201 202 202 202 201 200 201 202 204 205 206 206 207 210 212 212 212 214 216 217 220 221 220 220 219 221 223 223 224 225 225 225 225 227 229 229 230 233 234 234 237 240 240 240 242 244 245 246 246 245 245 246 248 249 251 252 253 255 257 260 261 261 262 263 262 258 255 253 255 257 257 254 250 249 251 251 253 255 255
196 193 194 196 196 195 197 198 198 199 201 203 205 206 204 202 201 202 204 205 206 207 210 214 216 218 219 219 219 221 222 222 221 220 220 221 221 222 224 225 227 228 228 230 232 233 234 234 235 238 241 241 239 240 243 244 245 244 243 245 248 251 252 253 253 253 254 255 257 258 260 262 264 263 261 258 255 255 257 257 254 249 244 243 245 248 250 251
Height
5636 5642 5648 5654 5659 5665 5671 5676 5681 5686 5691 5698 5704 5710 5715 5719 5724 5730 5736 5741 5746 5753 5759 5766 5773 5776 5778 5780 5784 5789 5793 5797 5800 5803 5809 5816 5818 5821 5824 5826 5827 5829 5832 5836 5839 5841 5842 5844 5846 5849 5852 5853 5856 5858 5860 5861 5863 5865 5866 5868 5870 5873 5875 5877 5879 5881 5882 5882 5883 5883 5885 5887 5889 5890 5891 5891 5892 5894 5895 5896 5897 5897 5897 5897 5897 5898 5898 5898
5626 5632 5639 5645 5651 5657 5662 5668 5675 5679 5684 5690 5697 5703 5708 5713 5718 5723 5729 5735 5741 5747 5753 5760 5766 5772 5775 5776 5780 5785 5788 5792 5795 5800 5807 5812 5813 5816 5819 5821 5824 5826 5829 5833 5836 5839 5840 5842 5843 5845 5848 5850 5853 5855 5857 5859 5861 5863 5864 5867 5870 5871 5872 5874 5876 5879 5880 5881 5881 5881 5883 5885 5887 5889 5890 5890 5890 5892 5893 5894 5895 5896 5896 5896 5896 5896 5897 5897
5616 5623 5630 5636 5643 5649 5654 5660 5667 5672 5677 5682 5689 5696 5702 5707 5712 5717 5723 5729 5735 5741 5748 5754 5759 5767 5772 5774 5778 5780 5784 5786 5789 5798 5805 5806 5808 5811 5814 5817 5820 5823 5826 5830 5833 5836 5838 5839 5840 5842 5845 5848 5851 5852 5855 5857 5859 5861 5863 5866 5868 5868 5869 5870 5874 5876 5878 5879 5879 5880 5881 5883 5885 5886 5888 5888 5889 5890 5891 5892 5894 5895 5895 5895 5895 5895 5896 5896
5606 5613 5621 5628 5635 5641 5646 5652 5659 5665 5670 5675 5681 5688 5694 5701 5706 5711 5717 5723 5729 5736 5742 5748 5752 5760 5767 5770 5773 5775 5778 5779 5784 5796 5799 5800 5804 5806 5810 5813 5816 5820 5824 5827 5830 5833 5835 5836 5838 5840 5842 5845 5848 5850 5852 5855 5857 5859 5862 5865 5865 5865 5867 5868 5870 5873 5875 5877 5878 5878 5879 5880 5882 5884 5886 5886 5887 5888 5889 5890 5891 5893 5894 5894 5894 5894 5894 5895
5597 5604 5612 5619 5626 5632 5638 5645 5652 5658 5663 5669 5674 5681 5688 5694 5700 5705 5711 5717 5724 5730 5736 5742 5746 5753 5762 5765 5769 5773 5772 5772 5781 5790 5791 5794 5799 5800 5804 5808 5811 5816 5820 5824 5826 5829 5831 5833 5835 5837 5839 5842 5845 5848 5850 5853 5855 5857 5860 5862 5863 5863 5865 5866 5867 5870 5872 5874 5876 5876 5877 5878 5880 5882 5883 5884 5885 5886 5887 5887 5889 5890 5891 5892 5893 5893 5893 5894
5587 5595 5603 5609 5617 5624 5630 5638 5645 5650 5655 5662 5668 5674 5681 5687 5694 5700 5705 5712 5718 5724 5730 5736 5740 5747 5758 5761 5765 5768 5765 5768 5778 5783 5785 5789 5793 5796 5799 5802 5807 5812 5816 5820 5822 5825 5827 5829 5832 5834 5837 5840 5842 5845 5848 5850 5852 5855 5858 5859 5860 5861 5862 5863 5864 5866 5869 5871 5873 5874 5876 5877 5878 5880 5881 5883 5883 5884 5885 5886 5887 5888 5889 5890 5891 5892 5892 5893
5577 5586 5593 5601 5608 5615 5622 5630 5638 5643 5649 5655 5662 5667 5674 5681 5688 5694 5700 5705 5711 5718 5724 5730 5734 5741 5750 5753 5756 5758 5759 5766 5773 5777 5781 5783 5787 5791 5794 5797 5802 5807 5812 5815 5818 5821 5823 5826 5829 5832 5834 5837 5839 5842 5844 5847 5849 5852 5855 5856 5857 5858 5859 5860 5862 5863 5866 5869 5870 5872 5874 5875 5876 5878 5879 5881 5881 5882 5884 5884 5885 5886 5887 5888 5889 5890 5891 5891
5567 5576 5584 5592 5599 5607 5615 5623 5630 5637 5643 5648 5656 5662 5668 5675 5682 5688 5694 5699 5705 5712 5718 5723 5728 5734 5741 5745 5748 5749 5755 5762 5767 5771 5775 5777 5782 5787 5789 5793 5797 5802 5807 5811 5814 5817 5819 5822 5825 5828 5830 5834 5837 5839 5842 5844 5846 5849 5852 5853 5854 5855 5856 5857 5859 5861 5863 5865 5868 5870 5871 5873 5874 5876 5878 5878 5878 5880 5882 5882 5883 5884 5885 5886 5887 5888 5889 5890
5559 5567 5575 5584 5592 5599 5608 5616 5623 5631 5637 5642 5649 5657 5662 5668 5676 5683 5688 5694 5699 5705 5712 5717 5722 5728 5733 5739 5742 5744 5753 5760 5763 5768 5771 5773 5778 5782 5785 5790 5794 5798 5803 5807 5810 5813 5815 5819 5821 5824 5827 5831 5834 5836 5838 5840 5842 5845 5848 5849 5850 5851 5852 5854 5856 5858 5860 5862 5864 5867 5868 5870 5872 5875 5877 5876 5876 5878 5880 5880 5881 5882 5883 5885 5886 5886 5887 5888
5550 5558 5567 5575 5584 5592 5601 5609 5617 5625 5632 5636 5643 5652 5656 5661 5669 5676 5682 5688 5694 5699 5706 5712 5717 5721 5725 5731 5733 5740 5754 5758 5759 5764 5767 5770 5773 5778 5782 5786 5791 5794 5798 5803 5806 5809 5812 5815 5817 5820 5824 5827 5829 5831 5833 5835 5839 5842 5844 5845 5847 5848 5849 5851 5853 5855 5857 5859 5861 5863 5865 5867 5870 5873 5875 5875 5874 5876 5877 5878 5879 5881 5882 5883 5884 5884 5885 5886
5542 5550 5558 5567 5576 5584 5593 5603 5611 5618 5625 5631 5638 5646 5651 5656 5662 5670 5677 5682 5689 5694 5700 5708 5713 5715 5720 5723 5725 5738 5753 5754 5754 5759 5762 5765 5768 5773 5777 5781 5786 5790 5794 5798 5802 5805 5807 5810 5812 5816 5819 5822 5825 5827 5830 5832 5835 5838 5840 5841 5843 5845 5846 5848 5850 5852 5854 5856 5858 5860 5862 5864 5868 5873 5874 5872 5872 5873 5875 5876 5877 5879 5879 5881 5882 5883 5884 5884
5534 5542 5550 5559 5568 5577 5586 5596 5605 5612 5620 5627 5633 5640 5646 5650 5656 5664 5671 5677 5683 5688 5695 5705 5708 5709 5713 5714 5721 5737 5748 5747 5748 5753 5757 5762 5764 5768 5773 5776 5781 5785 5789 5793 5797 5800 5802 5805 5808 5811 5815 5818 5822 5824 5826 5828 5830 5833 5836 5838 5840 5842 5843 5846 5848 5850 5852 5853 5855 5857 5858 5862 5867 5872 5871 5869 5869 5870 5872 5875 5876 5876 5877 5878 5880 5881 5882 5883
5526 5534 5543 5552 5560 5570 5580 5590 5600 5607 5615 5622 5628 5635 5640 5645 5652 5658 5665 5671 5677 5683 5691 5699 5703 5706 5705 5708 5720 5732 5738 5740 5741 5746 5753 5757 5760 5765 5769 5773 5777 5781 5785 5788 5791 5794 5797 5801 5803 5806 5811 5814 5817 5820 5822 5824 5826 5829 5832 5834 5836 5838 5840 5843 5844 5846 5849 5850 5853 5854 5854 5861 5866 5867 5867 5866 5866 5868 5870 5872 5873 5874 5875 5876 5878 5879 5880 5881
5519 5527 5536 5545 5553 5563 5574 5584 5594 5602 5610 5618 5624 5631 5636 5641 5647 5652 5658 5666 5671 5679 5687 5691 5697 5700 5698 5704 5718 5724 5729 5733 5733 5739 5748 5753 5756 5760 5765 5769 5773 5777 5780 5783 5786 5789 5793 5796 5797 5801 5806 5810 5814 5816 5818 5820 5822 5825 5828 5830 5832 5834 5836 5839 5841 5843 5846 5848 5851 5850 5850 5859 5864 5862 5863 5864 5863 5865 5868 5869 5871 5872 5873 5874 5876 5877 5878 5879
5512 5521 5529 5538 5547 5557 5567 5577 5588 5597 5606 5613 5619 5627 5634 5637 5642 5647 5653 5660 5667 5673 5680 5685 5689 5692 5692 5700 5710 5716 5721 5724 5726 5733 5742 5749 5752 5756 5761 5765 5768 5771 5775 5778 5782 5785 5788 5791 5793 5797 5801 5806 5810 5812 5814 5817 5819 5821 5824 5827 5829 5831 5833 5836 5837 5839 5842 5844 5847 5847 5847 5857 5862 5859 5860 5861 5861 5863 5865 5866 5868 5870 5871 5872 5874 5875 5876 5877
5505 5514 5523 5532 5541 5551 5561 5571 5582 5591 5601 5608 5614 5624 5631 5633 5636 5642 5647 5654 5661 5667 5674 5679 5684 5688 5689 5694 5703 5708 5712 5716 5722 5729 5737 5745 5748 5752 5757 5760 5764 5767 5770 5773 5776 5780 5783 5786 5789 5793 5797 5801 5805 5808 5810 5813 5815 5818 5821 5824 5826 5827 5828 5831 5833 5835 5838 5840 5842 5844 5845 5854 5859 5856 5856 5858 5858 5860 5861 5863 5864 5867 5869 5870 5872 5873 5874 5875
5498 5507 5516 5526 5535 5545 5555 5565 5576 5586 5596 5603 5609 5618 5625 5628 5631 5637 5644 5648 5652 5659 5667 5671 5679 5684 5683 5687 5695 5701 5706 5712 5719 5726 5732 5738 5743 5749 5753 5755 5760 5761 5764 5768 5770 5773 5777 5780 5784 5788 5792 5796 5800 5803 5805 5807 5811 5815 5817 5819 5819 5821 5823 5827 5831 5833 5835 5836 5839 5841 5842 5850 5855 5853 5853 5854 5855 5856 5858 5859 5861 5865 5867 5868 5870 5871 5872 5872
5491 5500 5509 5519 5530 5540 5549 5560 5571 5581 5590 5597 5605 5613 5618 5621 5624 5631 5637 5637 5641 5652 5657 5660 5668 5670 5670 5679 5688 5693 5703 5711 5717 5722 5726 5731 5737 5743 5748 5752 5755 5756 5759 5762 5764 5766 5769 5774 5778 5782 5786 5790 5794 5798 5800 5803 5808 5811 5812 5813 5814 5818 5822 5825 5830 5831 5832 5833 5835 5837 5838 5844 5851 5851 5850 5850 5850 5853 5855 5857 5859 5863 5865 5866 5867 5868 5869 5869
5483 5493 5503 5514 5524 5535 5544 5555 5565 5575 5585 5593 5601 5606 5610 5613 5616 5621 5624 5625 5632 5639 5641 5646 5655 5658 5664 5676 5683 5692 5703 5708 5712 5716 5719 5725 5732 5738 5743 5746 5749 5752 5754 5756 5758 5761 5764 5769 5771 5774 5780 5786 5791 5796 5798 5800 5803 5805 5807 5809 5812 5816 5820 5823 5827 5828 5828 5829 5830 5833 5833 5839 5847 5848 5847 5847 5846 5849 5852 5855 5858 5860 5862 5864 5864 5866 5866 5867
5477 5487 5498 5509 5519 5530 5540 5551 5561 5572 5581 5586 5590 5594 5597 5599 5599 5604 5610 5616 5625 5631 5637 5646 5654 5659 5667 5676 5681 5689 5696 5698 5704 5710 5714 5721 5727 5732 5736 5740 5743 5745 5747 5750 5752 5756 5759 5762 5766 5773 5780 5784 5789 5792 5793 5795 5797 5799 5803 5807 5808 5811 5815 5819 5822 5823 5825 5825 5826 5828 5828 5833 5842 5845 5844 5844 5843 5845 5849 5853 5856 5858 5859 5860 5862 5863 5864 5864
5471 5482 5493 5504 5515 5526 5537 5547 5558 5567 5574 5578 5581 5584 5586 5589 5593 5600 5608 5613 5620 5629 5639 5647 5652 5656 5663 5670 5676 5682 5687 5690 5697 5704 5708 5714 5720 5724 5728 5734 5737 5739 5743 5746 5748 5751 5753 5756 5763 5771 5775 5778 5782 5784 5787 5790 5791 5794 5799 5802 5804 5807 5810 5814 5817 5818 5820 5820 5821 5823 5823 5826 5835 5840 5840 5840 5840 5842 5846 5850 5853 5855 5855 5856 5859 5861 5862 5861
5465 5476 5488 5500 5511 5522 5534 5544 5553 5561 5567 5571 5575 5578 5584 5594 5602 5610 5615 5617 5621 5629 5636 5642 5647 5651 5657 5665 5671 5676 5683 5688 5692 5696 5699 5706 5713 5717 5722 5730 5733 5735 5739 5742 5744 5746 5746 5752 5761 5766 5768 5771 5774 5777 5781 5783 5784 5787 5792 5796 5799 5802 5805 5808 5810 5813 5814 5814 5815 5817 5817 5820 5828 5835 5837 5836 5837 5840 5843 5847 5849 5850 5851 5854 5857 5858 5858 5859
5460 5472 5484 5495 5507 5520 5530 5539 5548 5554 5558 5562 5567 5575 5586 5595 5600 5604 5608 5614 5620 5624 5629 5635 5641 5647 5654 5662 5668 5673 5679 5683 5685 5689 5695 5701 5707 5712 5719 5725 5729 5730 5733 5736 5740 5741 5744 5752 5760 5762 5763 5765 5768 5772 5774 5776 5778 5781 5786 5791 5794 5798 5801 5803 5805 5806 5807 5808 5810 5811 5811 5814 5822 5830 5835 5835 5835 5837 5840 5843 5845 5846 5848 5851 5854 5855 5856 5857
5456 5468 5480 5492 5505 5516 5525 5536 5542 5546 5552 5559 5565 5575 5585 5591 5594 5597 5601 5607 5613 5619 5624 5629 5636 5643 5649 5657 5664 5669 5674 5678 5681 5686 5692 5698 5704 5708 5715 5720 5721 5723 5728 5734 5737 5738 5743 5750 5753 5755 5758 5760 5763 5767 5769 5771 5774 5777 5781 5786 5791 5795 5797 5798 5799 5799 5800 5803 5805 5805 5805 5810 5818 5825 5832 5834 5832 5833 5836 5838 5841 5844 5845 5848 5849 5851 5854 5855
5452 5464 5477 5490 5501 5511 5523 5530 5533 5540 5551 5557 5562 5572 5580 5585 5589 5594 5598 5602 5607 5613 5618 5623 5630 5637 5643 5651 5656 5661 5668 5673 5678 5683 5688 5693 5699 5704 5710 5713 5714 5717 5724 5729 5729 5731 5739 5744 5746 5749 5752 5755 5758 5761 5765 5769 5772 5773 5778 5783 5787 5791 5793 5793 5792 5792 5794 5797 5800 5801 5799 5805 5814 5820 5826 5830 5829 5830 5833 5834 5837 5840 5842 5844 5846 5848 5850 5851
5449 5462 5474 5486 5497 5509 5517 5521 5527 5540 5549 5552 5558 5569 5576 5580 5585 5589 5594 5596 5598 5602 5608 5617 5625 5631 5639 5646 5650 5656 5661 5664 5671 5677 5681 5687 5692 5698 5704 5707 5710 5715 5720 5721 5719 5725 5734 5738 5741 5744 5747 5750 5753 5755 5760 5765 5767 5769 5775 5780 5782 5785 5787 5786 5785 5785 5786 5791 5795 5796 5795 5799 5809 5816 5821 5825 5826 5827 5828 5830 5834 5835 5836 5839 5842 5844 5845 5845
5446 5459 5471 5482 5494 5503 5506 5512 5525 5535 5539 5545 5556 5566 5571 5576 5581 5585 5588 5586 5586 5593 5601 5611 5619 5627 5635 5641 5647 5652 5652 5657 5667 5671 5676 5683 5686 5690 5696 5700 5706 5711 5713 5712 5714 5723 5732 5734 5737 5740 5743 5745 5746 5750 5756 5761 5762 5765 5771 5775 5776 5778 5778 5778 5778 5778 5781 5786 5788 5791 5794 5794 5800 5812 5818 5820 5823 5824 5825 5827 5830 5831 5832 5834 5836 5839 5841 5841
5444 5457 5469 5479 5490 5499 5503 5512 5521 5527 5534 5546 5556 5562 5567 5571 5575 5578 5578 5574 5577 5588 5597 5605 5614 5624 5632 5636 5641 5644 5647 5658 5664 5665 5673 5679 5680 5684 5689 5696 5703 5707 5707 5707 5713 5723 5728 5729 5733 5736 5737 5739 5743 5747 5752 5755 5757 5760 5766 5768 5770 5771 5771 5771 5772 5772 5776 5779 5780 5788 5792 5789 5793 5807 5814 5815 5818 5821 5822 5823 5825 5826 5828 5830 5832 5835 5836 5837
5443 5455 5467 5477 5488 5497 5504 5513 5520 5526 5535 5544 5551 5556 5563 5567 5568 5569 5567 5567 5575 5586 5593 5602 5611 5618 5624 5630 5635 5638 5645 5654 5657 5662 5671 5673 5675 5680 5686 5693 5699 5700 5701 5702 5708 5715 5718 5722 5726 5728 5731 5737 5741 5744 5747 5751 5752 5756 5760 5762 5765 5764 5764 5766 5765 5767 5770 5769 5775 5787 5790 5786 5787 5800 5808 5810 5814 5818 5819 5820 5821 5823 5825 5827 5829 5831 5832 5833
5441 5453 5464 5475 5482 5488 5498 5509 5517 5525 5533 5540 5546 5552 5558 5559 5558 5556 5554 5559 5571 5580 5588 5597 5605 5612 5619 5625 5630 5634 5641 5647 5652 5660 5665 5667 5671 5677 5683 5689 5692 5694 5697 5698 5701 5707 5712 5715 5718 5723 5730 5735 5737 5737 5741 5745 5748 5752 5754 5756 5760 5758 5759 5761 5760 5763 5762 5760 5775 5787 5787 5781 5779 5789 5800 5804 5811 5816 5816 5817 5818 5820 5821 5822 5825 5826 5827 5828
5440 5451 5461 5469 5475 5483 5493 5502 5509 5520 5529 5536 5541 5546 5549 5549 5548 5546 5548 5559 5571 5576 5583 5592 5599 5608 5616 5621 5625 5630 5637 5643 5648 5652 5656 5662 5666 5670 5676 5680 5683 5688 5691 5693 5696 5703 5708 5710 5715 5724 5729 5730 5731 5733 5736 5740 5744 5747 5749 5752 5754 5753 5755 5755 5754 5757 5752 5754 5775 5784 5777 5771 5768 5781 5797 5800 5806 5812 5813 5814 5816 5817 5817 5817 5819 5821 5823 5824
5439 5450 5459 5467 5477 5488 5496 5501 5510 5520 5526 5530 5536 5538 5538 5538 5538 5539 5546 5560 5568 5572 5581 5590 5597 5606 5613 5619 5624 5630 5635 5639 5643 5648 5654 5659 5661 5665 5671 5675 5680 5685 5686 5690 5696 5702 5705 5708 5714 5720 5722 5725 5728 5730 5733 5735 5739 5743 5745 5748 5749 5748 5749 5748 5748 5749 5745 5753 5772 5774 5765 5759 5761 5778 5793 5797 5801 5806 5808 5811 5812 5813 5813 5813 5813 5815 5817 5819
5439 5449 5458 5467 5478 5487 5494 5502 5511 5517 5520 5525 5530 5532 5531 5529 5530 5536 5549 5560 5564 5572 5585 5592 5599 5607 5611 5615 5621 5627 5632 5635 5640 5646 5651 5654 5657 5663 5667 5670 5677 5680 5684 5693 5697 5698 5700 5703 5707 5711 5717 5723 5725 5727 5730 5733 5736 5739 5741 5744 5743 5742 5742 5741 5742 5743 5744 5753 5765 5764 5755 5749 5758 5778 5791 5794 5796 5798 5802 5805 5806 5808 5809 5808 5808 5809 5812 5814
5440 5448 5456 5466 5476 5483 5490 5499 5505 5510 5515 5520 5522 5523 5523 5523 5527 5538 5551 5559 5564 5576 5586 5591 5598 5604 5607 5613 5619 5624 5627 5630 5637 5643 5645 5648 5651 5655 5659 5664 5670 5674 5681 5690 5690 5692 5694 5696 5703 5710 5714 5718 5722 5726 5728 5730 5732 5733 5737 5737 5736 5737 5737 5738 5740 5740 5743 5751 5756 5754 5746 5744 5760 5781 5788 5789 5790 5790 5794 5798 5799 5803 5805 5804 5804 5805 5807 5809
5439 5447 5455 5463 5470 5479 5489 5496 5502 5507 5510 5512 5515 5516 5515 5518 5527 5540 5551 5557 5565 5576 5583 5588 5595 5598 5602 5609 5615 5619 5622 5626 5633 5637 5639 5642 5647 5653 5657 5661 5667 5671 5678 5683 5684 5688 5690 5691 5702 5709 5708 5710 5715 5719 5721 5723 5725 5727 5729 5728 5729 5735 5736 5736 5737 5738 5740 5744 5745 5743 5739 5743 5761 5775 5778 5782 5784 5784 5787 5792 5795 5798 5800 5801 5800 5800 5802 5803
5437 5446 5453 5461 5468 5477 5486 5493 5499 5503 5506 5507 5508 5509 5513 5521 5533 5546 5554 5560 5567 5575 5579 5582 5587 5591 5596 5603 5607 5612 5617 5623 5629 5631 5633 5638 5645 5650 5655 5660 5665 5668 5675 5680 5683 5687 5689 5693 5702 5703 5702 5706 5708 5708 5712 5715 5717 5721 5721 5722 5729 5734 5731 5730 5732 5733 5734 5734 5735 5738 5738 5745 5757 5764 5770 5776 5779 5781 5782 5784 5788 5791 5793 5795 5796 5796 5796 5797
5433 5442 5450 5460 5470 5477 5485 5492 5495 5498 5502 5505 5506 5509 5518 5528 5536 5545 5552 5558 5565 5571 5573 5575 5580 5584 5590 5597 5602 5607 5613 5619 5624 5627 5631 5635 5639 5645 5651 5656 5661 5665 5673 5677 5680 5684 5688 5693 5697 5696 5698 5703 5700 5699 5703 5706 5709 5712 5715 5720 5727 5726 5723 5725 5725 5726 5728 5727 5730 5735 5737 5743 5749 5756 5766 5770 5773 5777 5777 5777 5781 5784 5786 5788 5790 5791 5791 5791
5435 5443 5451 5460 5470 5478 5485 5488 5492 5496 5499 5502 5506 5512 5519 5525 5533 5542 5549 5556 5561 5566 5569 5572 5576 5581 5586 5593 5600 5605 5610 5615 5618 5623 5628 5631 5635 5643 5650 5654 5660 5666 5670 5672 5674 5679 5684 5687 5690 5691 5693 5695 5693 5693 5696 5700 5702 5704 5710 5717 5718 5716 5718 5721 5719 5721 5724 5722 5725 5731 5734 5737 5742 5752 5763 5766 5769 5773 5772 5772 5775 5777 5779 5779 5781 5783 5785 5786
5437 5444 5452 5461 5470 5478 5483 5485 5490 5493 5494 5498 5506 5512 5517 5523 5531 5540 5547 5553 5558 5561 5563 5567 5574 5580 5586 5592 5598 5602 5607 5612 5616 5621 5625 5627 5634 5643 5649 5653 5659 5664 5666 5667 5670 5675 5680 5682 5684 5687 5688 5686 5687 5688 5690 5695 5698 5699 5704 5708 5710 5712 5714 5714 5714 5718 5720 5718 5721 5726 5727 5730 5740 5752 5759 5762 5766 5766 5766 5768 5770 5771 5773 5773 5773 5776 5778 5781
5438 5445 5452 5461 5469 5475 5479 5483 5486 5487 5490 5499 5507 5512 5518 5524 5530 5537 5543 5548 5552 5556 5559 5566 5574 5580 5585 5591 5595 5599 5604 5609 5614 5619 5622 5626 5633 5641 5644 5649 5655 5659 5661 5662 5665 5669 5672 5675 5678 5682 5682 5680 5682 5685 5689 5693 5693 5695 5699 5701 5704 5708 5708 5708 5710 5711 5713 5714 5715 5718 5720 5727 5743 5752 5753 5757 5760 5759 5761 5763 5765 5767 5769 5768 5768 5769 5771 5775
5439 5445 5451 5458 5464 5469 5472 5476 5479 5483 5491 5500 5505 5510 5516 5522 5529 5535 5540 5545 5550 5554 5559 5567 5573 5577 5582 5587 5592 5596 5601 5604 5610 5614 5618 5624 5631 5636 5641 5647 5653 5656 5656 5656 5658 5662 5666 5670 5674 5676 5675 5676 5680 5684 5687 5687 5686 5689 5693 5695 5699 5701 5700 5701 5702 5704 5708 5708 5710 5712 5711 5723 5743 5748 5747 5753 5755 5754 5757 5758 5760 5762 5763 5764 5765 5764 5764 5767
5439 5444 5450 5456 5460 5464 5468 5473 5478 5485 5492 5497 5503 5509 5515 5520 5527 5533 5537 5542 5547 5552 5558 5564 5569 5574 5579 5584 5590 5594 5597 5601 5607 5611 5615 5622 5629 5635 5640 5645 5647 5648 5649 5650 5653 5657 5660 5662 5666 5666 5668 5673 5677 5678 5679 5680 5682 5684 5686 5690 5693 5693 5693 5695 5696 5701 5703 5701 5704 5705 5701 5716 5741 5745 5743 5749 5750 5751 5753 5752 5754 5757 5757 5759 5761 5760 5759 5759
5440 5446 5453 5458 5462 5465 5469 5474 5478 5483 5489 5496 5503 5509 5513 5519 5524 5530 5535 5540 5544 5550 5556 5561 5566 5571 5576 5581 5587 5591 5595 5600 5604 5609 5614 5620 5626 5631 5634 5637 5639 5641 5642 5645 5648 5651 5652 5653 5657 5660 5663 5667 5670 5671 5672 5674 5678 5679 5680 5685 5687 5686 5689 5691 5693 5697 5696 5692 5698 5698 5693 5712 5738 5742 5742 5745 5746 5748 5749 5748 5749 5751 5752 5754 5756 5756 5755 5753
5440 5447 5453 5457 5462 5467 5470 5474 5478 5483 5489 5497 5502 5507 5512 5518 5523 5528 5533 5538 5542 5548 5553 5558 5563 5568 5573 5579 5583 5587 5592 5597 5601 5606 5611 5616 5621 5625 5628 5631 5634 5636 5638 5642 5646 5648 5647 5648 5652 5655 5656 5657 5659 5661 5664 5668 5672 5675 5679 5683 5683 5684 5687 5687 5689 5692 5687 5685 5693 5691 5689 5708 5732 5737 5737 5740 5741 5743 5744 5743 5744 5746 5748 5749 5749 5751 5750 5749
5441 5445 5450 5454 5459 5463 5468 5476 5482 5487 5492 5497 5502 5506 5511 5516 5522 5527 5531 5536 5541 5546 5551 5556 5560 5565 5570 5575 5579 5583 5588 5592 5597 5602 5606 5612 5617 5620 5623 5626 5630 5632 5636 5639 5640 5641 5639 5640 5644 5646 5646 5648 5652 5657 5665 5671 5673 5672 5675 5678 5680 5681 5681 5681 5683 5683 5680 5683 5688 5685 5687 5704 5721 5728 5731 5733 5733 5736 5738 5737 5738 5740 5741 5742 5743 5744 5745 5745
5439 5441 5444 5448 5453 5459 5467 5475 5481 5486 5491 5495 5499 5504 5509 5514 5520 5525 5529 5534 5539 5544 5549 5553 5558 5562 5566 5571 5576 5580 5585 5589 5594 5597 5603 5608 5612 5615 5618 5621 5624 5627 5631 5631 5630 5631 5631 5632 5636 5638 5639 5644 5651 5659 5666 5668 5665 5663 5666 5671 5674 5675 5676 5676 5673 5672 5676 5681 5680 5680 5686 5697 5708 5719 5728 5728 5726 5728 5731 5731 5732 5733 5733 5734 5736 5738 5740 5742
5439 5440 5442 5444 5449 5457 5465 5472 5477 5484 5489 5494 5498 5503 5507 5512 5518 5522 5528 5533 5538 5543 5547 5552 5556 5560 5565 5570 5574 5579 5583 5587 5590 5594 5600 5604 5606 5610 5612 5614 5617 5620 5623 5622 5622 5625 5625 5626 5631 5634 5636 5642 5648 5654 5658 5656 5653 5655 5659 5663 5666 5667 5668 5667 5664 5667 5674 5673 5669 5677 5685 5687 5696 5710 5719 5722 5720 5720 5723 5724 5725 5727 5726 5727 5729 5731 5735 5738
5437 5441 5445 5449 5453 5459 5466 5473 5478 5483 5487 5492 5497 5502 5506 5510 5515 5521 5526 5531 5536 5541 5545 5549 5555 5560 5565 5569 5573 5576 5579 5582 5586 5591 5596 5599 5602 5605 5606 5608 5611 5613 5614 5614 5616 5619 5619 5621 5627 5630 5631 5636 5642 5645 5648 5646 5645 5648 5652 5655 5659 5659 5658 5657 5658 5663 5666 5661 5662 5674 5678 5677 5688 5701 5709 5716 5715 5712 5716 5719 5719 5720 5720 5721 5722 5724 5728 5731
5438 5441 5446 5451 5456 5463 5470 5475 5479 5482 5486 5490 5495 5500 5506 5510 5514 5519 5524 5529 5534 5538 5542 5548 5553 5558 5562 5565 5569 5572 5575 5579 5585 5590 5593 5595 5597 5599 5602 5603 5605 5606 5607 5609 5613 5615 5613 5616 5623 5624 5624 5629 5634 5637 5639 5638 5638 5640 5644 5647 5651 5652 5650 5650 5653 5657 5657 5653 5657 5668 5669 5669 5682 5695 5703 5711 5709 5705 5709 5713 5712 5713 5713 5714 5716 5718 5721 5723
5439 5441 5445 5450 5456 5463 5468 5472 5476 5480 5485 5489 5494 5500 5505 5510 5515 5519 5524 5529 5533 5538 5543 5547 5551 5554 5558 5561 5565 5569 5574 5579 5584 5587 5589 5590 5592 5595 5597 5598 5599 5601 5602 5604 5607 5609 5608 5612 5618 5618 5616 5620 5625 5630 5632 5631 5631 5633 5636 5638 5640 5642 5642 5644 5647 5652 5653 5650 5653 5660 5659 5660 5674 5688 5697 5703 5700 5697 5702 5706 5706 5707 5706 5707 5709 5710 5712 5714
5439 5442 5446 5450 5456 5461 5466 5469 5474 5479 5484 5489 5495 5500 5504 5509 5515 5520 5524 5528 5533 5538 5542 5545 5548 5551 5554 5557 5562 5568 5572 5575 5578 5581 5584 5585 5587 5590 5590 5591 5593 5594 5596 5599 5601 5603 5604 5608 5612 5611 5608 5612 5621 5625 5625 5625 5624 5621 5623 5628 5631 5634 5637 5641 5646 5649 5649 5649 5650 5649 5645 5650 5667 5679 5684 5690 5691 5690 5695 5698 5697 5698 5699 5699 5701 5703 5705 5706
5439 5442 5446 5450 5454 5459 5463 5468 5473 5478 5485 5491 5496 5500 5504 5508 5513 5517 5521 5526 5530 5534 5538 5541 5545 5549 5552 5557 5562 5566 5568 5570 5572 5575 5577 5578 5580 5581 5582 5585 5587 5589 5592 5594 5595 5598 5600 5603 5606 5605 5601 5607 5617 5619 5619 5618 5610 5604 5613 5626 5630 5632 5636 5638 5639 5641 5643 5642 5640 5638 5639 5648 5661 5666 5669 5677 5684 5688 5691 5689 5685 5688 5691 5691 5692 5696 5697 5697